Vorticity
12 11 10 9 8 7 7 8 9 10 10 11 11 10 10 9 9 8 8 8 7 7 7 6 6 6 6 5 5 6 6 6 6 6 6 6 5 5 4 4 4 4 4 4 4 5 5 5 5 5 5 5 5 5 5 6 7 7 8 8 9 9 9 9 9 9 9 9 9
12 12 10 8 7 7 7 8 9 10 11 11 11 10 10 9 9 8 8 7 7 7 7 6 6 6 5 5 5 6 6 6 6 6 6 6 5 5 5 4 4 4 4 4 4 5 5 5 5 5 5 5 5 5 5 6 6 7 7 8 8 9 9 9 9 9 9 8 9
12 12 10 8 7 7 7 8 9 10 11 11 11 10 10 9 9 8 8 7 7 7 7 6 6 6 5 5 5 5 6 6 6 6 6 6 5 5 5 4 4 4 4 4 4 5 5 5 5 5 5 4 5 5 5 5 6 7 7 8 8 9 9 9 9 8 8 8 9
12 12 10 8 7 7 7 9 10 10 11 11 10 10 9 9 8 8 7 7 7 7 6 6 6 5 5 5 5 5 5 6 6 6 6 6 6 5 5 4 4 4 4 4 5 5 5 5 5 5 5 4 5 5 5 5 6 6 7 7 8 8 9 8 8 8 8 8 8
12 12 10 9 8 7 8 9 10 10 10 10 10 9 9 8 8 7 7 7 6 6 6 6 6 5 5 5 5 5 5 6 6 6 6 6 6 5 5 4 4 4 4 4 5 5 5 5 5 5 5 4 5 5 5 5 5 6 7 7 8 8 8 8 8 8 8 8 8
13 12 11 9 8 8 8 9 10 10 10 10 10 9 9 8 8 7 7 6 6 6 6 6 5 5 5 5 5 5 5 6 6 6 6 6 6 5 5 4 4 4 4 5 5 5 5 5 5 5 5 4 4 5 5 5 5 6 6 7 8 8 8 8 8 8 8 8 8
13 12 11 10 9 8 8 9 9 10 10 10 9 9 8 8 7 7 7 6 6 6 6 5 5 5 5 5 5 5 6 6 6 6 6 6 6 5 5 4 4 4 4 5 5 5 5 5 4 4 4 4 4 4 4 5 5 6 6 7 7 8 8 8 7 7 8 8 8
13 12 11 10 9 9 8 9 9 10 10 9 9 8 8 7 7 7 6 6 6 6 6 5 5 5 5 5 5 5 6 6 6 6 6 6 5 5 5 4 4 4 5 5 5 5 5 5 4 4 4 4 4 4 4 5 5 6 6 7 7 7 8 7 7 7 7 8 8
14 13 12 11 10 9 9 9 9 9 9 9 8 8 8 7 7 7 6 6 6 6 6 5 5 5 5 5 5 6 6 6 6 6 6 6 5 5 5 5 5 5 5 5 5 5 5 4 4 4 4 4 4 4 4 4 5 5 6 7 7 7 7 7 7 7 7 8 8
13 13 12 11 10 10 9 9 9 9 9 8 8 8 7 7 7 6 6 6 6 6 6 5 5 5 5 5 6 6 6 6 6 6 6 5 5 5 5 5 5 5 5 5 5 5 5 4 4 4 4 4 4 4 4 4 5 5 6 7 7 7 7 7 7 7 7 8 8
13 13 12 11 11 10 9 9 9 9 9 8 8 7 7 7 7 6 6 6 6 6 6 6 5 5 5 6 6 6 6 6 6 6 6 5 5 5 5 5 5 5 5 5 5 5 5 4 4 4 4 4 4 4 4 4 5 5 6 6 7 7 7 7 7 7 7 7 8
12 12 12 12 11 10 10 9 9 9 8 8 8 7 7 7 6 6 6 6 6 6 6 6 6 6 6 6 6 6 6 6 6 6 5 5 5 5 5 5 5 5 5 5 5 5 5 4 4 4 4 4 4 4 4 4 5 5 5 6 7 7 7 7 7 7 7 7 8
12 12 12 12 11 10 10 9 9 9 8 8 8 7 7 7 6 6 6 6 6 6 6 6 6 6 6 6 6 6 6 6 6 6 5 5 5 5 5 5 5 5 5 5 5 5 5 4 4 4 4 4 4 4 4 4 4 5 5 6 6 7 7 7 7 7 7 7 8
11 12 12 11 11 10 10 9 9 9 8 8 8 7 7 7 7 6 6 6 6 6 6 6 6 6 6 6 6 6 6 6 6 5 5 5 5 5 5 5 5 5 5 5 5 5 5 4 4 4 4 4 4 4 4 4 5 5 5 6 6 7 7 7 7 7 7 7 7
11 11 12 11 11 10 10 9 9 9 8 8 8 7 7 7 7 7 6 6 6 6 6 6 6 6 6 6 6 6 6 6 6 5 5 5 5 6 6 6 6 6 5 5 5 5 5 4 4 4 4 4 4 4 4 4 5 5 6 6 6 6 7 6 7 7 7 7 7
10 11 11 11 11 10 9 9 9 9 9 8 8 8 8 7 7 7 7 7 6 6 6 6 6 6 6 6 6 6 6 6 6 5 5 5 6 6 6 6 6 6 5 5 5 5 5 4 4 4 4 4 4 4 4 4 5 5 5 6 6 6 6 6 7 7 7 7 7
10 11 11 11 11 10 9 9 9 8 8 8 8 8 8 8 7 7 7 7 7 6 6 6 6 6 6 6 6 6 6 6 6 6 6 6 6 6 6 6 6 6 6 5 5 5 4 4 4 5 5 5 5 4 4 4 5 5 5 6 6 6 6 6 6 7 7 7 7
9 10 11 11 11 10 10 9 8 8 8 8 8 8 8 8 8 8 7 7 7 7 7 6 6 6 6 6 6 6 6 6 6 6 6 6 6 6 6 6 6 6 6 5 5 5 4 4 4 5 5 5 5 5 4 5 5 5 5 6 6 6 6 6 6 7 7 7 7
8 9 10 11 11 10 10 9 8 8 8 8 8 8 8 8 8 8 8 8 7 7 7 7 6 6 6 6 6 6 6 6 6 6 6 6 6 6 6 6 6 6 6 5 5 5 5 4 4 5 5 5 5 5 5 5 5 5 5 6 6 6 6 6 6 7 7 7 7
8 9 9 10 10 10 10 9 8 8 8 8 8 8 8 8 8 8 8 8 8 7 7 7 6 6 6 6 6 6 6 6 6 6 6 6 6 6 6 6 6 6 6 5 5 5 5 5 5 5 5 5 5 5 5 5 5 5 5 6 6 6 6 6 6 7 7 7 7
7 8 9 10 10 10 10 9 8 8 8 8 8 8 8 8 8 8 8 8 8 8 7 7 7 6 6 6 6 6 6 6 6 6 6 6 6 6 6 6 6 6 6 5 5 5 5 5 5 5 5 5 5 5 5 5 5 5 5 5 6 6 6 6 6 7 7 7 7
6 7 8 9 9 10 9 9 8 8 7 7 7 7 7 7 7 8 8 8 8 7 7 7 7 7 6 6 6 6 6 6 6 6 6 6 6 6 6 6 6 6 6 5 5 5 5 5 5 5 5 5 5 5 5 5 5 5 5 5 6 6 6 6 6 7 7 7 7
6 6 7 8 9 9 9 9 8 8 7 7 7 6 7 7 7 7 7 7 7 7 7 7 7 7 7 6 6 6 6 6 6 6 6 6 6 6 6 6 6 6 6 5 5 5 5 5 5 5 5 5 5 5 5 5 5 5 5 5 6 6 6 6 6 7 7 7 7
6 6 6 7 8 9 9 9 8 8 7 6 6 6 6 6 6 6 6 7 7 7 7 7 7 7 7 6 6 6 6 6 6 6 6 6 6 6 6 6 6 6 6 5 5 5 5 5 5 5 5 5 5 5 5 5 5 5 5 6 6 6 6 6 6 7 7 7 7
6 6 6 6 7 8 8 9 8 8 7 6 6 5 5 5 6 6 6 6 6 6 7 7 7 7 7 6 6 6 6 6 6 6 6 6 6 6 6 6 6 6 6 6 6 6 6 6 6 6 6 5 5 5 5 5 5 5 6 6 6 6 6 6 6 7 7 7 7
5 5 5 6 6 7 7 8 8 8 7 6 6 5 5 5 5 6 6 6 6 7 7 7 7 7 7 7 7 6 6 6 6 6 6 6 6 6 6 6 6 6 6 6 6 6 6 6 6 6 6 6 5 5 5 5 5 5 6 6 6 6 6 6 6 7 7 7 7
4 5 5 5 6 6 6 7 7 7 7 7 6 5 5 5 5 5 6 6 7 7 7 7 7 7 7 7 7 7 6 6 6 6 6 6 6 6 6 6 6 6 6 6 6 6 6 6 6 6 6 6 6 5 5 5 5 5 6 6 6 6 6 6 6 7 7 7 7
3 4 5 5 5 5 6 6 6 7 7 7 6 6 6 5 5 5 6 6 7 7 7 7 7 7 7 7 7 7 7 6 6 6 6 6 6 6 6 6 6 6 6 6 6 6 6 6 7 7 6 6 6 5 5 5 5 5 5 6 6 6 6 6 6 7 7 7 7
2 3 4 5 5 5 5 5 6 6 6 6 6 6 6 6 5 6 6 6 7 7 7 7 8 7 7 7 7 7 7 6 6 6 6 6 6 6 6 6 6 6 6 6 6 6 7 7 7 7 6 6 6 5 5 5 5 5 5 6 6 6 6 6 6 7 7 7 7
3 3 4 5 6 6 5 5 5 6 6 6 6 6 6 6 6 6 6 6 6 7 7 7 7 7 7 7 7 7 7 6 6 6 6 6 6 6 6 6 6 6 6 6 6 7 7 7 7 7 6 6 6 5 5 5 6 5 5 5 6 6 6 6 6 7 7 7 7
6 4 4 5 6 6 6 5 5 5 6 6 6 6 6 6 6 6 6 6 7 7 7 7 7 7 7 7 7 7 7 6 6 6 6 6 6 6 6 6 6 6 6 7 7 8 8 8 7 7 6 6 6 5 5 6 6 6 6 6 6 6 6 6 7 7 7 7 7
10 6 5 5 6 6 6 6 6 5 5 6 6 6 6 7 7 7 7 7 7 7 8 8 8 8 8 7 7 7 7 7 7 7 7 7 7 7 7 6 7 7 7 8 8 8 8 8 7 7 6 6 6 6 6 6 6 6 6 6 6 6 6 6 7 7 7 7 7
15 10 7 5 6 6 7 6 6 6 6 6 6 6 6 7 7 7 7 7 8 8 8 9 9 9 9 9 8 8 8 8 8 7 7 7 7 7 7 7 7 8 8 9 9 9 8 8 7 7 6 6 6 6 6 6 6 6 6 6 6 6 6 6 7 7 7 7 7
20 15 11 7 6 6 6 7 6 6 6 6 6 6 7 7 7 7 7 8 8 8 9 9 10 10 10 10 10 10 10 9 9 9 8 8 8 8 8 8 8 9 9 9 9 9 8 8 7 7 6 6 6 6 6 6 6 6 6 6 6 6 6 6 7 7 7 7 7
23 21 17 13 10 8 7 7 7 7 7 7 7 7 7 7 7 7 7 8 8 8 8 9 10 10 11 11 11 11 11 11 10 10 10 9 9 9 9 9 9 10 10 10 9 9 8 8 7 7 6 6 6 6 6 6 6 6 6 6 6 6 6 6 6 7 7 7 7
21 22 22 19 16 13 11 9 8 7 7 7 7 7 7 7 7 7 8 8 8 8 8 9 9 9 10 10 11 11 11 11 11 11 11 10 10 10 10 10 10 10 10 10 9 9 8 8 7 7 6 6 6 6 6 6 6 6 6 6 6 6 6 6 6 7 7 7 7
15 18 20 21 20 19 17 14 12 10 8 8 8 8 8 8 8 8 8 8 8 8 8 8 9 9 9 10 10 10 11 11 11 11 11 11 11 10 10 10 10 10 10 9 9 9 8 8 7 7 7 6 6 6 6 6 6 6 6 6 6 6 6 6 6 7 7 7 7
8 9 11 14 17 19 20 19 17 15 12 10 9 8 8 8 8 8 9 9 9 9 9 9 9 9 9 9 10 10 10 10 11 11 11 11 11 11 10 10 10 10 10 9 9 9 8 8 8 7 7 6 6 6 6 6 6 6 6 6 6 6 6 6 6 7 7 7 7
4 4 4 5 9 13 17 20 20 19 17 15 12 10 9 8 8 9 9 9 9 9 9 9 9 9 9 9 10 10 10 10 11 11 11 11 11 11 10 10 10 10 10 9 9 9 8 8 8 7 7 6 6 6 6 6 6 6 6 6 5 6 6 6 6 7 7 7 8
4 3 2 1 3 6 10 15 19 20 21 19 16 14 12 10 9 9 9 9 9 10 10 10 9 9 9 9 10 10 10 10 11 11 11 11 10 10 10 10 10 10 10 9 9 9 8 8 8 7 7 7 6 6 6 6 6 6 6 6 5 6 6 6 7 7 7 7 8
5 5 4 3 3 3 5 9 15 19 21 21 19 17 14 12 10 10 9 9 10 10 10 10 10 10 10 10 10 10 10 11 11 11 11 11 10 10 10 10 10 10 10 9 9 9 8 8 8 7 7 7 6 6 6 6 6 6 6 6 5 6 6 6 7 7 7 7 8
Height
5661 5662 5663 5664 5665 5666 5667 5668 5670 5671 5672 5673 5675 5676 5677 5679 5680 5681 5682 5684 5685 5686 5687 5689 5690 5691 5692 5693 5694 5695 5696 5697 5698 5699 5699 5700 5701 5701 5702 5702 5702 5703 5703 5703 5704 5704 5704 5704 5704 5704 5704 5703 5703 5703 5702 5702 5701 5701 5700 5699 5698 5697 5697 5696 5695 5694 5694 5693 5692
5659 5660 5661 5662 5663 5664 5665 5666 5667 5668 5670 5671 5672 5674 5675 5676 5678 5679 5680 5682 5683 5684 5685 5686 5687 5689 5690 5691 5692 5693 5694 5695 5696 5696 5697 5698 5699 5699 5700 5700 5701 5701 5701 5702 5702 5702 5702 5702 5702 5702 5702 5702 5701 5701 5701 5700 5700 5699 5698 5697 5697 5696 5695 5695 5694 5693 5692 5691 5690
5657 5658 5659 5660 5661 5662 5663 5664 5665 5666 5667 5669 5670 5671 5673 5674 5675 5677 5678 5679 5681 5682 5683 5684 5686 5687 5688 5689 5690 5691 5692 5693 5694 5695 5696 5696 5697 5697 5698 5698 5699 5699 5700 5700 5700 5700 5700 5700 5701 5701 5700 5700 5700 5700 5699 5699 5698 5697 5697 5696 5695 5695 5694 5693 5692 5691 5691 5690 5689
5654 5656 5656 5657 5659 5660 5661 5662 5663 5664 5665 5666 5668 5669 5670 5672 5673 5675 5676 5677 5678 5680 5681 5682 5683 5685 5686 5687 5688 5689 5690 5691 5692 5693 5694 5694 5695 5696 5696 5696 5697 5697 5698 5698 5698 5698 5699 5699 5699 5699 5699 5698 5698 5698 5698 5697 5696 5696 5695 5695 5694 5693 5692 5691 5691 5690 5689 5688 5687
5652 5653 5654 5655 5656 5657 5659 5660 5661 5662 5663 5664 5666 5667 5668 5670 5671 5672 5674 5675 5676 5678 5679 5680 5681 5683 5684 5685 5686 5687 5688 5689 5690 5691 5692 5692 5693 5694 5694 5695 5695 5696 5696 5696 5696 5697 5697 5697 5697 5697 5697 5697 5696 5696 5696 5696 5695 5695 5694 5693 5692 5691 5691 5690 5689 5689 5688 5687 5686
5650 5651 5652 5653 5654 5655 5656 5658 5659 5660 5661 5662 5664 5665 5666 5668 5669 5670 5672 5673 5674 5676 5677 5678 5679 5681 5682 5683 5684 5685 5686 5687 5688 5689 5690 5691 5691 5692 5692 5693 5693 5694 5694 5694 5695 5695 5695 5695 5695 5695 5695 5695 5695 5695 5694 5694 5693 5693 5692 5692 5691 5690 5690 5689 5688 5687 5686 5686 5685
5647 5648 5649 5651 5652 5653 5654 5656 5657 5658 5659 5660 5662 5663 5664 5666 5667 5668 5670 5671 5672 5673 5675 5676 5677 5679 5680 5681 5682 5683 5684 5685 5686 5687 5688 5689 5689 5690 5691 5691 5691 5692 5692 5692 5693 5693 5693 5693 5693 5693 5693 5693 5693 5693 5692 5692 5692 5691 5691 5690 5690 5689 5688 5687 5686 5686 5685 5684 5683
5644 5646 5647 5648 5650 5651 5652 5653 5655 5656 5657 5658 5660 5661 5662 5664 5665 5666 5667 5669 5670 5671 5673 5674 5675 5676 5678 5679 5680 5681 5682 5683 5684 5685 5686 5686 5687 5688 5689 5689 5690 5690 5690 5691 5691 5691 5691 5691 5691 5691 5691 5691 5691 5691 5691 5691 5690 5690 5690 5689 5688 5687 5687 5686 5685 5685 5684 5683 5682
5641 5643 5644 5646 5647 5648 5650 5651 5652 5654 5655 5656 5657 5659 5660 5661 5663 5664 5666 5667 5668 5669 5671 5672 5673 5674 5676 5677 5678 5679 5680 5681 5682 5683 5684 5685 5686 5686 5687 5687 5688 5688 5688 5689 5689 5689 5690 5690 5690 5690 5690 5690 5690 5689 5689 5689 5689 5688 5688 5687 5687 5686 5686 5685 5684 5683 5682 5681 5681
5638 5640 5641 5643 5644 5646 5647 5649 5650 5651 5653 5654 5656 5657 5658 5659 5661 5662 5663 5665 5666 5667 5669 5670 5671 5672 5674 5675 5676 5677 5678 5679 5680 5681 5682 5683 5684 5684 5685 5686 5686 5686 5686 5687 5687 5687 5688 5688 5688 5688 5688 5688 5688 5687 5687 5687 5687 5687 5686 5686 5686 5685 5684 5683 5683 5682 5681 5680 5680
5635 5637 5638 5640 5641 5643 5645 5646 5647 5649 5651 5652 5653 5655 5656 5657 5659 5660 5661 5663 5664 5665 5666 5668 5669 5670 5671 5673 5674 5675 5676 5677 5678 5679 5680 5681 5681 5682 5683 5683 5684 5684 5685 5685 5685 5686 5686 5686 5686 5686 5686 5686 5686 5686 5686 5686 5685 5685 5685 5685 5684 5684 5683 5682 5681 5681 5680 5679 5678
5632 5634 5636 5637 5639 5640 5642 5643 5645 5646 5648 5650 5651 5652 5654 5655 5656 5658 5659 5661 5662 5663 5664 5666 5666 5668 5669 5671 5672 5673 5674 5675 5676 5677 5678 5679 5680 5680 5681 5681 5682 5682 5683 5683 5683 5684 5684 5684 5685 5685 5685 5684 5684 5684 5684 5684 5684 5684 5683 5683 5683 5682 5682 5681 5680 5680 5679 5678 5677
5629 5631 5632 5634 5636 5637 5639 5641 5642 5644 5646 5647 5649 5650 5651 5653 5654 5656 5657 5658 5660 5661 5662 5663 5664 5666 5667 5668 5670 5671 5672 5673 5674 5675 5676 5677 5677 5678 5679 5680 5680 5681 5681 5681 5681 5682 5682 5682 5683 5683 5683 5683 5683 5682 5682 5682 5682 5682 5682 5681 5681 5681 5681 5680 5679 5678 5678 5677 5676
5626 5628 5630 5631 5633 5635 5636 5638 5640 5641 5643 5645 5646 5648 5649 5651 5652 5653 5655 5656 5657 5659 5660 5661 5662 5663 5665 5666 5667 5668 5670 5671 5672 5673 5674 5675 5676 5676 5677 5677 5678 5679 5679 5679 5680 5680 5680 5681 5681 5681 5681 5681 5681 5681 5681 5681 5681 5680 5680 5680 5680 5680 5679 5679 5678 5677 5676 5676 5675
5623 5625 5626 5628 5630 5631 5633 5635 5637 5639 5641 5642 5644 5645 5646 5648 5649 5651 5652 5654 5655 5656 5657 5659 5660 5661 5662 5664 5665 5666 5667 5668 5670 5671 5671 5672 5673 5674 5675 5676 5676 5676 5677 5677 5678 5678 5678 5679 5679 5679 5679 5679 5679 5679 5679 5679 5679 5679 5679 5678 5678 5678 5678 5677 5677 5676 5676 5675 5674
5620 5622 5624 5625 5627 5629 5631 5632 5634 5636 5638 5639 5641 5642 5644 5646 5647 5648 5650 5651 5652 5654 5655 5656 5658 5659 5660 5661 5663 5664 5665 5666 5667 5668 5669 5670 5671 5672 5673 5673 5674 5674 5675 5675 5676 5676 5676 5676 5677 5677 5677 5677 5677 5677 5677 5677 5677 5677 5677 5677 5677 5676 5676 5676 5676 5675 5674 5673 5673
5617 5619 5621 5622 5624 5626 5627 5629 5631 5633 5635 5636 5638 5640 5641 5643 5644 5646 5647 5649 5650 5651 5653 5654 5655 5656 5658 5659 5660 5661 5663 5664 5665 5666 5667 5668 5669 5670 5670 5671 5672 5672 5673 5673 5674 5674 5674 5674 5675 5675 5675 5676 5676 5676 5676 5676 5676 5675 5675 5675 5675 5675 5675 5675 5674 5674 5673 5672 5672
5614 5616 5617 5619 5621 5623 5625 5626 5628 5630 5632 5634 5635 5637 5639 5640 5642 5643 5645 5646 5648 5649 5651 5652 5653 5654 5656 5657 5658 5659 5660 5661 5663 5664 5665 5666 5666 5667 5668 5669 5669 5670 5671 5671 5672 5672 5672 5672 5673 5673 5673 5674 5674 5674 5674 5674 5674 5674 5674 5674 5674 5673 5673 5673 5673 5672 5672 5671 5671
5611 5612 5614 5616 5618 5620 5622 5624 5626 5627 5629 5631 5632 5634 5636 5637 5639 5641 5642 5644 5645 5646 5648 5649 5651 5652 5653 5654 5656 5656 5658 5659 5660 5661 5662 5663 5664 5665 5666 5666 5667 5668 5668 5669 5670 5670 5670 5671 5671 5671 5671 5672 5672 5672 5672 5672 5672 5672 5672 5672 5672 5672 5672 5671 5671 5671 5670 5670 5669
5607 5609 5611 5613 5615 5617 5619 5621 5622 5624 5626 5628 5630 5631 5633 5635 5636 5638 5640 5641 5642 5644 5645 5646 5648 5649 5651 5652 5653 5654 5655 5656 5658 5659 5660 5661 5662 5662 5663 5664 5665 5666 5666 5667 5667 5668 5668 5669 5669 5669 5670 5670 5670 5670 5671 5671 5671 5671 5671 5671 5671 5670 5670 5670 5670 5669 5669 5668 5668
5604 5606 5608 5610 5612 5614 5616 5617 5619 5621 5623 5625 5627 5629 5630 5632 5634 5635 5637 5638 5640 5641 5643 5644 5645 5646 5648 5649 5650 5651 5653 5654 5655 5656 5657 5658 5659 5660 5661 5662 5662 5663 5664 5665 5665 5666 5666 5666 5667 5667 5667 5668 5668 5668 5669 5669 5669 5669 5669 5669 5669 5669 5669 5668 5668 5668 5668 5667 5667
5601 5603 5605 5606 5608 5611 5612 5614 5616 5618 5620 5622 5624 5626 5627 5629 5631 5632 5634 5636 5637 5639 5640 5641 5643 5644 5645 5646 5648 5649 5650 5651 5653 5654 5655 5656 5657 5658 5658 5659 5660 5661 5661 5662 5663 5663 5664 5664 5665 5665 5666 5666 5666 5666 5667 5667 5667 5667 5667 5667 5667 5667 5667 5667 5667 5666 5666 5666 5666
5597 5600 5601 5603 5605 5607 5609 5611 5613 5615 5617 5619 5621 5623 5625 5626 5628 5630 5631 5633 5634 5636 5637 5639 5640 5641 5642 5644 5645 5646 5647 5649 5650 5651 5652 5653 5654 5655 5656 5657 5658 5658 5659 5660 5661 5661 5662 5662 5663 5663 5663 5664 5664 5665 5665 5665 5666 5666 5666 5666 5666 5666 5666 5666 5665 5665 5665 5665 5664
5594 5596 5598 5600 5602 5604 5606 5608 5610 5612 5614 5616 5618 5620 5622 5623 5625 5627 5628 5630 5631 5633 5635 5636 5637 5639 5640 5641 5642 5644 5645 5646 5647 5649 5650 5651 5652 5653 5653 5654 5655 5656 5657 5657 5658 5659 5659 5660 5661 5661 5661 5662 5662 5663 5663 5663 5664 5664 5664 5664 5664 5664 5664 5664 5664 5664 5663 5663 5663
5591 5593 5595 5597 5599 5601 5602 5605 5607 5609 5611 5613 5615 5616 5619 5620 5622 5624 5626 5627 5629 5630 5632 5633 5635 5636 5637 5638 5640 5641 5642 5643 5645 5646 5647 5648 5649 5650 5651 5652 5653 5653 5654 5655 5656 5656 5657 5657 5658 5659 5659 5660 5660 5661 5661 5661 5661 5662 5662 5662 5662 5662 5662 5662 5662 5662 5662 5662 5661
5587 5589 5591 5593 5595 5597 5599 5601 5603 5606 5607 5610 5611 5613 5615 5617 5619 5621 5622 5624 5626 5627 5629 5630 5631 5633 5634 5636 5637 5638 5639 5641 5642 5643 5644 5646 5646 5647 5648 5649 5650 5651 5652 5652 5653 5654 5655 5655 5656 5656 5657 5658 5658 5659 5659 5659 5660 5660 5660 5661 5661 5661 5661 5661 5661 5661 5660 5660 5660
5584 5586 5588 5590 5592 5594 5596 5598 5600 5602 5604 5606 5608 5610 5612 5614 5616 5617 5619 5621 5623 5624 5626 5627 5629 5630 5631 5633 5634 5635 5636 5638 5639 5640 5641 5643 5644 5645 5646 5647 5647 5648 5649 5650 5651 5651 5652 5653 5653 5654 5655 5656 5656 5656 5657 5657 5658 5658 5658 5659 5659 5659 5659 5659 5659 5659 5659 5659 5658
5580 5582 5584 5586 5588 5590 5592 5594 5596 5599 5601 5603 5605 5607 5609 5611 5612 5614 5616 5618 5620 5621 5623 5624 5626 5627 5629 5630 5631 5632 5634 5635 5636 5637 5639 5640 5641 5642 5643 5644 5645 5646 5646 5647 5648 5649 5650 5650 5651 5652 5652 5653 5654 5654 5655 5655 5656 5656 5656 5657 5657 5657 5657 5657 5657 5657 5657 5657 5657
5576 5578 5581 5582 5585 5586 5589 5591 5593 5595 5597 5599 5601 5603 5605 5607 5609 5611 5613 5614 5616 5618 5620 5621 5622 5624 5626 5627 5628 5630 5631 5632 5633 5635 5636 5637 5638 5639 5640 5641 5642 5643 5644 5645 5645 5646 5647 5648 5649 5649 5650 5651 5651 5652 5653 5653 5654 5654 5655 5655 5655 5655 5656 5656 5656 5656 5656 5656 5656
5572 5575 5577 5579 5581 5583 5585 5587 5589 5591 5594 5596 5598 5600 5602 5604 5606 5607 5609 5611 5613 5614 5616 5618 5619 5621 5622 5624 5625 5626 5628 5629 5630 5631 5633 5634 5635 5636 5637 5638 5639 5640 5641 5642 5643 5644 5645 5646 5646 5647 5648 5649 5649 5650 5651 5651 5652 5652 5652 5653 5653 5653 5653 5654 5654 5654 5654 5654 5654
5568 5571 5573 5575 5577 5579 5581 5583 5586 5588 5590 5592 5594 5596 5598 5600 5602 5604 5606 5607 5609 5611 5612 5614 5616 5617 5619 5620 5622 5623 5625 5626 5627 5628 5630 5631 5632 5633 5634 5635 5636 5637 5638 5639 5640 5641 5642 5643 5644 5645 5646 5646 5647 5648 5648 5649 5650 5650 5651 5651 5651 5651 5651 5652 5652 5652 5652 5652 5652
5564 5566 5569 5571 5573 5575 5577 5580 5582 5584 5586 5589 5591 5593 5595 5597 5599 5601 5602 5604 5606 5607 5609 5611 5612 5614 5616 5617 5618 5620 5621 5623 5624 5625 5626 5628 5629 5630 5631 5632 5633 5634 5635 5636 5637 5638 5639 5641 5641 5642 5643 5644 5645 5645 5646 5647 5647 5648 5648 5649 5649 5649 5650 5650 5650 5650 5650 5650 5651
5560 5562 5564 5567 5569 5571 5574 5576 5579 5581 5583 5585 5587 5589 5591 5593 5595 5597 5599 5601 5602 5604 5606 5607 5609 5611 5612 5614 5615 5616 5618 5619 5621 5622 5623 5625 5626 5627 5628 5629 5631 5631 5633 5634 5635 5636 5637 5638 5639 5640 5641 5641 5642 5643 5644 5645 5645 5646 5646 5647 5647 5647 5648 5648 5648 5648 5648 5648 5649
5556 5558 5561 5563 5565 5568 5570 5573 5575 5577 5579 5581 5583 5586 5588 5590 5592 5594 5596 5597 5599 5600 5602 5604 5605 5607 5608 5610 5612 5613 5615 5616 5617 5619 5620 5621 5623 5624 5625 5626 5627 5629 5630 5631 5632 5633 5634 5635 5636 5637 5638 5639 5640 5641 5641 5642 5643 5644 5644 5645 5645 5646 5646 5646 5646 5646 5646 5646 5647
5552 5554 5557 5559 5561 5564 5567 5569 5571 5573 5576 5578 5580 5582 5584 5586 5588 5590 5592 5593 5595 5597 5599 5600 5602 5603 5605 5607 5608 5610 5611 5613 5614 5616 5617 5618 5620 5621 5622 5624 5625 5626 5627 5628 5630 5631 5632 5633 5634 5635 5636 5636 5637 5638 5639 5640 5641 5641 5642 5642 5643 5643 5644 5644 5644 5644 5645 5645 5645
5549 5551 5553 5556 5558 5561 5563 5565 5567 5570 5572 5574 5576 5578 5580 5583 5585 5586 5588 5590 5592 5594 5596 5597 5599 5600 5602 5603 5605 5606 5608 5610 5611 5612 5614 5616 5617 5618 5620 5621 5622 5623 5625 5626 5627 5628 5629 5630 5631 5632 5633 5634 5635 5636 5637 5637 5638 5639 5640 5640 5641 5641 5642 5642 5642 5642 5643 5643 5643
5545 5547 5550 5552 5555 5557 5559 5561 5564 5566 5568 5570 5572 5574 5576 5579 5581 5583 5585 5587 5589 5591 5592 5594 5596 5597 5599 5600 5602 5604 5605 5606 5608 5610 5611 5612 5614 5616 5617 5618 5620 5621 5622 5623 5624 5625 5626 5627 5629 5630 5631 5631 5632 5633 5634 5635 5636 5637 5637 5638 5639 5639 5640 5640 5640 5641 5641 5641 5641
5541 5544 5546 5549 5551 5553 5556 5558 5560 5562 5564 5566 5568 5571 5573 5576 5578 5580 5582 5584 5586 5587 5589 5591 5593 5594 5596 5597 5599 5601 5602 5604 5605 5607 5608 5610 5611 5613 5614 5616 5617 5618 5619 5621 5621 5623 5624 5625 5626 5627 5628 5629 5630 5631 5632 5633 5634 5635 5635 5636 5636 5637 5637 5638 5638 5638 5639 5639 5639
5538 5540 5543 5545 5547 5549 5552 5554 5556 5558 5560 5562 5565 5567 5570 5572 5574 5576 5578 5580 5582 5584 5586 5588 5590 5591 5593 5595 5596 5598 5599 5601 5602 5604 5606 5607 5608 5610 5611 5613 5614 5615 5616 5618 5619 5620 5621 5622 5623 5624 5625 5626 5627 5628 5629 5630 5631 5632 5633 5634 5634 5635 5635 5636 5636 5636 5637 5637 5637
5534 5536 5539 5541 5544 5546 5548 5550 5552 5554 5556 5559 5561 5564 5566 5568 5571 5573 5575 5577 5579 5581 5583 5585 5586 5588 5590 5591 5593 5595 5596 5598 5599 5601 5602 5604 5606 5607 5609 5610 5611 5613 5614 5615 5616 5617 5618 5620 5621 5622 5623 5624 5625 5626 5627 5628 5629 5630 5631 5631 5632 5633 5633 5634 5634 5634 5635 5635 5635
5531 5533 5536 5538 5540 5542 5545 5546 5549 5551 5553 5556 5558 5560 5562 5565 5567 5569 5571 5573 5575 5577 5579 5581 5583 5585 5586 5588 5590 5591 5593 5595 5596 5598 5600 5601 5603 5604 5606 5607 5609 5610 5611 5612 5613 5615 5616 5617 5618 5619 5620 5621 5622 5623 5624 5625 5626 5627 5628 5629 5630 5630 5631 5631 5632 5632 5632 5633 5633